Find Starlink 36566

NORAD ID: 67551 Int'l Des: 2026-014 Owner: SPXS Country: US Constellation: starlink operational
LEOCIRCULARRETROGRADE

現在のビュー

3D地球を読み込み中...

About Starlink 36566

Starlink 36566 (NORAD 67551) is a starlink constellation satellite (v2 mini) launched Jan 22, 2026 by SPXS of US. It operates in LEO, CIRCULAR, RETROGRADE orbit with a mass of 575.00 kg.

Starlink 36566について

説明を読み込み中...

次回通過

Passes for default location (London). Set your location on the main map for personalized predictions.

高度履歴

Loading altitude history...

軌道要素

1 67551U 26014V 26194.65098901 .00012136 00000-0 37741-3 0 9995
2 67551 97.2881 80.9441 0001581 92.0477 268.0947 15.33462629 28075
Epoch: Jul 13, 2026 • Age: 15 hours

現在のステータス

高度 474.2 km
遠地点 / 近地点 N/A
速度 7.63 km/s
衛星直下点 -21.64°S, 132.4°W
打ち上げ日 Jan 22, 2026
運用期間 0.4 years
タイプ internet

技術仕様

分類 Payload
質量 575.00 kg
乾燥質量 530.00 kg
総質量 575.00 kg
長さ 0.30 m
直径 4.10 m
スパン 29.00 m
形状 Box + pan
製造者 SPXS
バスタイプ Starlink V2MO
フェーズステータス In Orbit
所有者/国 SPXS/US

Most Searched